This is the latest recevied weather packets stored in our database for station/object N8QF. If no packets are shown the sender has not sent any weather packets the latest 10 day(s).
| Time | Temp. | Humidity | Pressure | Rain* | Wind** | Luminosity | Snow |
|---|---|---|---|---|---|---|---|
| 1778038370 | 11.67° C | 95% | 1005.9 hPa | 16.76 mm | - | - | - |
| 1778038070 | 11.67° C | 95% | 1005.8 hPa | 16.76 mm | - | - | - |
| 1778037770 | 11.67° C | 95% | 1005.9 hPa | 16.51 mm | - | - | - |
| 1778037469 | 11.67° C | 94% | 1006.2 hPa | 16.51 mm | - | - | - |
| 1778037169 | 11.67° C | 95% | 1006.2 hPa | 16.51 mm | - | - | - |
| 1778036869 | 11.67° C | 94% | 1006.2 hPa | 16.51 mm | - | - | - |
| 1778036569 | 11.67° C | 94% | 1006 hPa | 16.51 mm | - | - | - |
| 1778036269 | 11.67° C | 94% | 1006.4 hPa | 16.26 mm | - | - | - |
| 1778035968 | 11.67° C | 94% | 1006.2 hPa | 16.26 mm | - | - | - |
| 1778035668 | 11.67° C | 94% | 1006.5 hPa | 16.26 mm | - | - | - |
| 1778035368 | 11.67° C | 93% | 1006.8 hPa | 16 mm | - | - | - |
| 1778035068 | 12.78° C | 92% | 1006.9 hPa | 15.75 mm | - | - | - |
| 1778034767 | 13.33° C | 91% | 1007.1 hPa | 15.49 mm | - | - | - |
| 1778034467 | 14.44° C | 89% | 1007 hPa | 14.99 mm | - | - | - |
| 1778034167 | 15.56° C | 93% | 1006.9 hPa | 14.48 mm | - | - | - |
| 1778033867 | 15.56° C | 93% | 1006.9 hPa | 14.22 mm | - | - | - |
| 1778033566 | 15.56° C | 93% | 1006.8 hPa | 13.97 mm | - | - | - |
| 1778033266 | 15.56° C | 93% | 1006.9 hPa | 13.72 mm | - | - | - |
| 1778032966 | 15.56° C | 93% | 1006.9 hPa | 13.46 mm | - | - | - |
| 1778032666 | 15.56° C | 93% | 1006.9 hPa | 13.21 mm | - | - | - |
| 1778032366 | 15.56° C | 93% | 1006.8 hPa | 12.95 mm | - | - | - |
| 1778032065 | 15.56° C | 93% | 1006.7 hPa | 12.95 mm | - | - | - |
| 1778031765 | 15.56° C | 93% | 1006.6 hPa | 12.95 mm | - | - | - |
| 1778031463 | 15.56° C | 93% | 1006.6 hPa | 12.7 mm | - | - | - |
| 1778031163 | 15.56° C | 93% | 1006.5 hPa | 12.7 mm | - | - | - |
* Rain since midnight (hover to see other rain measurements)
** Current wind speed in m/s (hover to see current wind gust speed)